STARLINK-36642

Last updated on Thu Mar 05 2026 00:02:08 GMT+0000 (Coordinated Universal Time)

1 67659U 26022M 26063.05953750 .00268245 00000+0 17338-2 0 9996 2 67659 97.2843 96.7734 0001522 123.3491 236.7920 15.75317258 4666
UTC large
Height (km)
Speed (km/s)
/
Latitude / Longitude
Inclination (degrees)
Orbital Period (minutes)
Azimuth
Elevation
Range (km)
Doppler Factor

Next 0 passes for location: London (51.5072 / 0.1276)

Sorry there are no passes over London.